Location: Oberkirch
(48.5323°N, 8.0787°E)
Time: 20:16:46
(UTC+00:00)

Tiros 1 - Pass Details

Date: 19 February 2026
Orbit: 618 x 649 km, 48.4° (Epoch: 5 March)

Event Time Altitude Azimuth Distance (km) Brightness Sun altitude
Rises 08:42:55 0° 244° (WSW) 2,908 10.3 18.4°
Reaches altitude 10° 08:45:16 10° 241° (WSW) 1,998 9.6 18.7°
Maximum altitude 08:49:48 63° 161° (SSE) 697 8.1 19.3°
Drops below altitude 10° 08:54:19 10° 81° (E) 1,988 10.2 19.8°
Sets 08:56:38 0° 78° (ENE) 2,892 10.9 20.0°
